IRIDIUM 43 [+]

Last updated on Tue May 16 2017 00:17:33 GMT+0000 (Coordinated Universal Time)

1 25039U 97069A 17135.55513374 .00111367 12950-5 74959-3 0 9998 2 25039 86.4099 35.4056 0338538 167.4033 193.5953 15.25327791 21677

Satellite not in orbit

IRIDIUM 43 [+]